Time,TemperatureF,DewpointF,PressureIn,WindDirection,WindDirectionDegrees,WindSpeedMPH,WindSpeedGustMPH,Humidity,HourlyPrecipIn,Conditions,Clouds,dailyrainin,SoftwareType,DateUTC
2014-12-26 00:03:00,37.0,33.2,30.16,NNW,337,0.0,0.0,86,0.00,,,0.00,LWC V2.10 B1500,2014-12-26 08:03:00,
2014-12-26 00:08:00,37.0,33.2,30.15,NNW,337,0.0,0.0,86,0.00,,,0.00,LWC V2.10 B1500,2014-12-26 08:08:00,
2014-12-26 00:13:00,37.0,33.2,30.15,NNW,337,0.0,0.0,86,0.00,,,0.00,LWC V2.10 B1500,2014-12-26 08:13:00,
2014-12-26 00:18:00,37.0,33.2,30.15,NNW,337,0.0,0.0,86,0.00,,,0.00,LWC V2.10 B1500,2014-12-26 08:18:00,
2014-12-26 00:23:00,37.0,33.2,30.15,NNW,337,0.0,0.0,86,0.00,,,0.00,LWC V2.10 B1500,2014-12-26 08:23:00,
2014-12-26 00:28:00,37.0,33.2,30.15,NNW,337,0.0,0.0,86,0.00,,,0.00,LWC V2.10 B1500,2014-12-26 08:28:00,
2014-12-26 00:33:00,36.9,33.0,30.15,NNW,337,0.0,0.0,86,0.00,,,0.00,LWC V2.10 B1500,2014-12-26 08:33:00,
2014-12-26 00:38:00,36.9,33.0,30.15,NNW,337,0.0,0.0,86,0.00,,,0.00,LWC V2.10 B1500,2014-12-26 08:38:00,
2014-12-26 00:43:00,36.7,32.8,30.15,NNW,337,0.0,0.0,86,0.00,,,0.00,LWC V2.10 B1500,2014-12-26 08:43:00,
2014-12-26 00:48:00,36.7,32.8,30.15,NNW,337,0.0,0.0,86,0.00,,,0.00,LWC V2.10 B1500,2014-12-26 08:48:00,
2014-12-26 00:53:00,36.5,32.6,30.15,NNW,337,0.0,0.0,86,0.00,,,0.00,LWC V2.10 B1500,2014-12-26 08:53:00,
2014-12-26 00:58:00,36.5,32.6,30.15,NNW,337,0.0,0.0,86,0.00,,,0.00,LWC V2.10 B1500,2014-12-26 08:58:00,
2014-12-26 01:03:00,36.5,32.5,30.15,NNW,337,0.0,0.0,86,0.00,,,0.00,LWC V2.10 B1500,2014-12-26 09:03:00,
2014-12-26 01:08:00,36.3,32.5,30.15,NNW,337,0.0,0.0,86,0.00,,,0.00,LWC V2.10 B1500,2014-12-26 09:08:00,
2014-12-26 01:13:00,36.1,32.3,30.15,NNW,337,0.0,0.0,86,0.00,,,0.00,LWC V2.10 B1500,2014-12-26 09:13:00,
2014-12-26 01:18:00,36.1,32.5,30.16,NNW,337,0.0,0.0,86,0.00,,,0.00,LWC V2.10 B1500,2014-12-26 09:18:00,
2014-12-26 01:23:00,36.3,32.5,30.16,NNW,337,0.0,0.0,86,0.00,,,0.00,LWC V2.10 B1500,2014-12-26 09:23:00,
2014-12-26 01:28:00,36.5,32.6,30.17,NNW,337,0.0,0.0,86,0.00,,,0.00,LWC V2.10 B1500,2014-12-26 09:28:00,
2014-12-26 01:33:00,36.5,32.6,30.17,NNW,337,0.0,0.0,86,0.00,,,0.00,LWC V2.10 B1500,2014-12-26 09:33:00,
2014-12-26 01:38:00,36.7,32.8,30.17,NNW,337,0.0,0.0,86,0.00,,,0.00,LWC V2.10 B1500,2014-12-26 09:38:00,
2014-12-26 01:43:00,36.9,33.0,30.17,NNW,337,0.0,0.0,86,0.00,,,0.00,LWC V2.10 B1500,2014-12-26 09:43:00,
2014-12-26 01:48:00,36.9,33.0,30.17,NNW,337,0.0,0.0,86,0.00,,,0.00,LWC V2.10 B1500,2014-12-26 09:48:00,
2014-12-26 01:53:00,37.0,33.2,30.17,NNW,337,0.0,0.0,86,0.00,,,0.00,LWC V2.10 B1500,2014-12-26 09:53:00,
2014-12-26 01:58:00,37.0,33.2,30.17,NNW,337,0.0,0.0,86,0.00,,,0.00,LWC V2.10 B1500,2014-12-26 09:58:00,
2014-12-26 02:03:00,37.0,33.2,30.17,NNW,337,0.0,0.0,86,0.00,,,0.00,LWC V2.10 B1500,2014-12-26 10:03:00,
2014-12-26 02:08:00,37.0,33.2,30.18,NNW,337,0.0,0.0,86,0.00,,,0.00,LWC V2.10 B1500,2014-12-26 10:08:00,
2014-12-26 02:13:00,37.0,33.2,30.18,NNW,337,0.0,0.0,86,0.00,,,0.00,LWC V2.10 B1500,2014-12-26 10:13:00,
2014-12-26 02:18:00,37.0,33.2,30.17,NNW,337,0.0,0.0,86,0.00,,,0.00,LWC V2.10 B1500,2014-12-26 10:18:00,
2014-12-26 02:23:00,37.0,33.2,30.17,NNW,337,0.0,0.0,86,0.00,,,0.00,LWC V2.10 B1500,2014-12-26 10:23:00,
2014-12-26 02:28:00,37.2,33.4,30.17,NNW,337,0.0,0.0,86,0.00,,,0.00,LWC V2.10 B1500,2014-12-26 10:28:00,
2014-12-26 02:33:00,37.2,33.4,30.18,NNW,337,0.0,0.0,86,0.00,,,0.00,LWC V2.10 B1500,2014-12-26 10:33:00,
2014-12-26 02:38:00,37.2,33.4,30.17,NNW,337,0.0,0.0,86,0.00,,,0.00,LWC V2.10 B1500,2014-12-26 10:38:00,
2014-12-26 02:43:00,37.2,33.4,30.17,NNW,337,0.0,0.0,86,0.00,,,0.00,LWC V2.10 B1500,2014-12-26 10:43:00,
2014-12-26 02:48:00,37.2,33.4,30.17,NNW,337,0.0,0.0,86,0.00,,,0.00,LWC V2.10 B1500,2014-12-26 10:48:00,
2014-12-26 02:53:00,37.2,33.4,30.17,NNW,337,0.0,0.0,86,0.00,,,0.00,LWC V2.10 B1500,2014-12-26 10:53:00,
2014-12-26 02:58:00,37.2,33.4,30.17,NW,315,0.0,0.0,86,0.00,,,0.00,LWC V2.10 B1500,2014-12-26 10:58:00,
2014-12-26 03:03:00,37.2,33.4,30.17,NNW,337,0.0,0.0,86,0.00,,,0.00,LWC V2.10 B1500,2014-12-26 11:03:00,
2014-12-26 03:08:00,37.2,33.2,30.17,NNW,337,0.0,0.0,86,0.00,,,0.00,LWC V2.10 B1500,2014-12-26 11:08:00,
2014-12-26 03:13:00,37.0,33.2,30.17,NNW,337,0.0,0.0,86,0.00,,,0.00,LWC V2.10 B1500,2014-12-26 11:13:00,
2014-12-26 03:18:00,37.0,33.2,30.17,NNW,337,0.0,0.0,86,0.00,,,0.00,LWC V2.10 B1500,2014-12-26 11:18:00,
2014-12-26 03:23:00,37.0,33.2,30.17,NNW,337,0.0,0.0,86,0.00,,,0.00,LWC V2.10 B1500,2014-12-26 11:23:00,
2014-12-26 03:28:00,37.0,33.2,30.17,NNW,337,0.0,0.0,86,0.00,,,0.00,LWC V2.10 B1500,2014-12-26 11:28:00,
2014-12-26 03:33:00,37.0,33.2,30.17,NNW,337,0.0,0.0,86,0.00,,,0.00,LWC V2.10 B1500,2014-12-26 11:33:00,
2014-12-26 03:38:00,37.0,33.2,30.17,NNW,337,0.0,0.0,86,0.00,,,0.00,LWC V2.10 B1500,2014-12-26 11:38:00,
2014-12-26 03:43:00,37.0,33.2,30.17,NNW,337,0.0,0.0,86,0.00,,,0.00,LWC V2.10 B1500,2014-12-26 11:43:00,
2014-12-26 03:48:00,37.0,33.2,30.17,NNW,337,0.0,0.0,86,0.00,,,0.00,LWC V2.10 B1500,2014-12-26 11:48:00,
2014-12-26 03:53:00,37.0,33.2,30.17,NNW,337,0.0,0.0,86,0.00,,,0.00,LWC V2.10 B1500,2014-12-26 11:53:00,
2014-12-26 03:58:00,37.0,33.2,30.17,NNW,337,0.0,0.0,86,0.00,,,0.00,LWC V2.10 B1500,2014-12-26 11:58:00,
2014-12-26 04:03:00,37.0,33.2,30.17,NNW,337,0.0,0.0,86,0.00,,,0.00,LWC V2.10 B1500,2014-12-26 12:03:00,
2014-12-26 04:08:00,37.0,33.2,30.17,NNW,337,0.0,0.0,86,0.00,,,0.00,LWC V2.10 B1500,2014-12-26 12:08:00,
2014-12-26 04:13:00,37.0,33.2,30.17,NNW,337,0.0,0.0,86,0.00,,,0.00,LWC V2.10 B1500,2014-12-26 12:13:00,
2014-12-26 04:18:00,37.0,33.2,30.17,NNW,337,0.0,0.0,86,0.00,,,0.00,LWC V2.10 B1500,2014-12-26 12:18:00,
2014-12-26 04:23:00,37.0,33.2,30.17,NW,315,0.0,0.0,86,0.00,,,0.00,LWC V2.10 B1500,2014-12-26 12:23:00,
2014-12-26 04:28:00,37.0,33.2,30.17,West,270,0.0,0.0,86,0.00,,,0.00,LWC V2.10 B1500,2014-12-26 12:28:00,
2014-12-26 04:33:00,36.9,33.0,30.17,West,270,0.0,0.0,86,0.00,,,0.00,LWC V2.10 B1500,2014-12-26 12:33:00,
2014-12-26 04:38:00,36.9,33.0,30.17,West,270,0.0,0.0,86,0.00,,,0.00,LWC V2.10 B1500,2014-12-26 12:38:00,
2014-12-26 04:43:00,36.7,32.8,30.17,West,270,0.0,0.0,86,0.00,,,0.00,LWC V2.10 B1500,2014-12-26 12:43:00,
2014-12-26 04:48:00,36.7,32.8,30.17,West,270,0.0,0.0,86,0.00,,,0.00,LWC V2.10 B1500,2014-12-26 12:48:00,
2014-12-26 04:53:00,36.7,32.8,30.17,West,270,0.0,0.0,86,0.00,,,0.00,LWC V2.10 B1500,2014-12-26 12:53:00,
2014-12-26 04:58:00,36.5,32.6,30.17,West,270,0.0,0.0,86,0.00,,,0.00,LWC V2.10 B1500,2014-12-26 12:58:00,
2014-12-26 05:03:00,36.3,32.5,30.18,West,270,0.0,0.0,86,0.00,,,0.00,LWC V2.10 B1500,2014-12-26 13:03:00,
2014-12-26 05:08:00,36.3,32.5,30.18,West,270,0.0,0.0,86,0.00,,,0.00,LWC V2.10 B1500,2014-12-26 13:08:00,
2014-12-26 05:13:00,36.3,32.5,30.18,West,270,0.0,0.0,86,0.00,,,0.00,LWC V2.10 B1500,2014-12-26 13:13:00,
2014-12-26 05:18:00,36.5,32.6,30.18,West,270,0.0,0.0,86,0.00,,,0.00,LWC V2.10 B1500,2014-12-26 13:18:00,
2014-12-26 05:23:00,36.5,32.6,30.18,West,270,0.0,0.0,86,0.00,,,0.00,LWC V2.10 B1500,2014-12-26 13:23:00,
2014-12-26 05:28:00,36.5,32.6,30.18,West,270,0.0,0.0,86,0.00,,,0.00,LWC V2.10 B1500,2014-12-26 13:28:00,
2014-12-26 05:33:00,36.5,32.6,30.19,West,270,0.0,0.0,86,0.00,,,0.00,LWC V2.10 B1500,2014-12-26 13:33:00,
2014-12-26 05:38:00,36.5,32.6,30.19,West,270,0.0,0.0,86,0.00,,,0.00,LWC V2.10 B1500,2014-12-26 13:38:00,
2014-12-26 05:43:00,36.3,32.5,30.19,West,270,0.0,0.0,86,0.00,,,0.00,LWC V2.10 B1500,2014-12-26 13:43:00,
2014-12-26 05:48:00,36.3,32.5,30.19,West,270,0.0,0.0,86,0.00,,,0.00,LWC V2.10 B1500,2014-12-26 13:48:00,
2014-12-26 05:53:00,36.3,32.5,30.19,West,270,0.0,0.0,86,0.00,,,0.00,LWC V2.10 B1500,2014-12-26 13:53:00,
2014-12-26 05:58:00,36.5,32.6,30.19,West,270,0.0,0.0,86,0.00,,,0.00,LWC V2.10 B1500,2014-12-26 13:58:00,
2014-12-26 06:06:00,36.3,32.5,30.19,West,270,0.0,0.0,86,-99.99,,,0.00,LWC V2.10 B1500,2014-12-26 14:06:00,
2014-12-26 06:11:00,36.3,32.5,30.19,West,270,0.0,0.0,86,0.00,,,0.00,LWC V2.10 B1500,2014-12-26 14:11:00,
2014-12-26 06:16:00,36.5,32.6,30.19,West,270,0.0,0.0,86,0.00,,,0.00,LWC V2.10 B1500,2014-12-26 14:16:00,
2014-12-26 06:21:00,36.5,32.6,30.20,West,270,0.0,0.0,86,0.00,,,0.00,LWC V2.10 B1500,2014-12-26 14:21:00,
2014-12-26 06:26:00,36.5,32.6,30.19,West,270,0.0,0.0,86,0.00,,,0.00,LWC V2.10 B1500,2014-12-26 14:26:00,
2014-12-26 06:31:00,36.5,32.6,30.19,West,270,0.0,0.0,86,0.00,,,0.00,LWC V2.10 B1500,2014-12-26 14:31:00,
2014-12-26 06:36:00,36.5,32.6,30.19,West,270,0.0,0.0,86,0.00,,,0.00,LWC V2.10 B1500,2014-12-26 14:36:00,
2014-12-26 06:41:00,36.5,32.6,30.19,WNW,292,0.0,0.0,86,0.00,,,0.00,LWC V2.10 B1500,2014-12-26 14:41:00,
2014-12-26 06:46:00,36.3,32.6,30.20,WNW,292,0.0,0.0,86,0.00,,,0.00,LWC V2.10 B1500,2014-12-26 14:46:00,
2014-12-26 06:51:00,36.3,32.5,30.19,WNW,292,0.0,0.0,86,0.00,,,0.00,LWC V2.10 B1500,2014-12-26 14:51:00,
2014-12-26 06:56:00,36.3,32.5,30.20,WNW,292,0.0,0.0,86,0.00,,,0.00,LWC V2.10 B1500,2014-12-26 14:56:00,
2014-12-26 07:01:00,36.1,32.3,30.19,WNW,292,0.0,0.0,86,0.00,,,0.00,LWC V2.10 B1500,2014-12-26 15:01:00,
2014-12-26 07:06:00,36.0,32.1,30.19,WNW,292,0.0,0.0,86,0.00,,,0.00,LWC V2.10 B1500,2014-12-26 15:06:00,
2014-12-26 07:11:00,35.8,31.9,30.19,WNW,292,0.0,0.0,86,0.00,,,0.00,LWC V2.10 B1500,2014-12-26 15:11:00,
2014-12-26 07:16:00,35.8,31.9,30.19,WNW,292,0.0,0.0,86,0.00,,,0.00,LWC V2.10 B1500,2014-12-26 15:16:00,
2014-12-26 07:21:00,35.8,31.9,30.19,WNW,292,0.0,0.0,86,0.00,,,0.00,LWC V2.10 B1500,2014-12-26 15:21:00,
2014-12-26 07:26:00,35.8,31.9,30.19,WNW,292,0.0,0.0,86,0.00,,,0.00,LWC V2.10 B1500,2014-12-26 15:26:00,
2014-12-26 07:31:00,35.8,31.9,30.19,WNW,292,0.0,0.0,86,0.00,,,0.00,LWC V2.10 B1500,2014-12-26 15:31:00,
2014-12-26 07:36:00,35.8,31.9,30.19,WNW,292,0.0,0.0,86,0.00,,,0.00,LWC V2.10 B1500,2014-12-26 15:36:00,
2014-12-26 07:41:00,36.0,32.1,30.19,WNW,292,0.0,0.0,86,0.00,,,0.00,LWC V2.10 B1500,2014-12-26 15:41:00,
2014-12-26 07:46:00,36.0,32.1,30.19,WNW,292,0.0,0.0,86,0.00,,,0.00,LWC V2.10 B1500,2014-12-26 15:46:00,
2014-12-26 07:51:00,36.0,32.1,30.19,WNW,292,0.0,0.0,86,0.00,,,0.00,LWC V2.10 B1500,2014-12-26 15:51:00,
2014-12-26 07:56:00,36.1,32.3,30.19,WNW,292,0.0,0.0,86,0.00,,,0.00,LWC V2.10 B1500,2014-12-26 15:56:00,
2014-12-26 08:01:00,36.1,32.3,30.19,WNW,292,0.0,0.0,86,0.00,,,0.00,LWC V2.10 B1500,2014-12-26 16:01:00,
2014-12-26 08:06:00,36.1,32.3,30.19,WNW,292,0.0,0.0,86,0.00,,,0.00,LWC V2.10 B1500,2014-12-26 16:06:00,
2014-12-26 08:11:00,36.1,32.3,30.19,WNW,292,0.0,0.0,86,0.00,,,0.00,LWC V2.10 B1500,2014-12-26 16:11:00,
2014-12-26 08:16:00,36.1,32.3,30.19,WNW,292,0.0,0.0,86,0.00,,,0.00,LWC V2.10 B1500,2014-12-26 16:16:00,
2014-12-26 08:21:00,36.3,32.5,30.19,WNW,292,0.0,0.0,86,0.00,,,0.00,LWC V2.10 B1500,2014-12-26 16:21:00,
2014-12-26 08:26:00,36.3,32.5,30.19,WNW,292,0.0,0.0,86,0.00,,,0.00,LWC V2.10 B1500,2014-12-26 16:26:00,
2014-12-26 08:31:00,36.5,32.6,30.19,WNW,292,0.0,0.0,86,0.00,,,0.00,LWC V2.10 B1500,2014-12-26 16:31:00,
2014-12-26 08:36:00,36.5,32.6,30.19,WNW,292,0.0,0.0,86,0.00,,,0.00,LWC V2.10 B1500,2014-12-26 16:36:00,
2014-12-26 08:41:00,36.7,32.8,30.20,WNW,292,0.0,0.0,86,0.00,,,0.00,LWC V2.10 B1500,2014-12-26 16:41:00,
2014-12-26 08:46:00,36.7,32.8,30.20,WNW,292,0.0,0.0,86,0.00,,,0.00,LWC V2.10 B1500,2014-12-26 16:46:00,
2014-12-26 08:51:00,36.7,32.8,30.20,WNW,292,0.0,0.0,86,0.00,,,0.00,LWC V2.10 B1500,2014-12-26 16:51:00,
2014-12-26 08:56:00,36.9,33.0,30.20,WNW,292,0.0,0.0,86,0.00,,,0.00,LWC V2.10 B1500,2014-12-26 16:56:00,
2014-12-26 09:01:00,36.7,32.8,30.21,WNW,292,0.0,0.0,86,0.00,,,0.00,LWC V2.10 B1500,2014-12-26 17:01:00,
2014-12-26 09:06:00,36.7,32.8,30.21,WNW,292,0.0,0.0,86,0.00,,,0.00,LWC V2.10 B1500,2014-12-26 17:06:00,
2014-12-26 09:11:00,36.9,33.0,30.21,WNW,292,0.0,0.0,86,0.00,,,0.00,LWC V2.10 B1500,2014-12-26 17:11:00,
2014-12-26 09:16:00,36.9,33.0,30.22,WNW,292,0.0,0.0,86,0.00,,,0.00,LWC V2.10 B1500,2014-12-26 17:16:00,
2014-12-26 09:21:00,36.9,33.0,30.21,WNW,292,0.0,0.0,86,0.00,,,0.00,LWC V2.10 B1500,2014-12-26 17:21:00,
2014-12-26 09:26:00,37.2,33.4,30.21,WNW,292,0.0,0.0,86,0.00,,,0.00,LWC V2.10 B1500,2014-12-26 17:26:00,
2014-12-26 09:31:00,37.2,33.4,30.22,WNW,292,0.0,0.0,86,0.00,,,0.00,LWC V2.10 B1500,2014-12-26 17:31:00,
2014-12-26 09:36:00,37.2,33.4,30.22,WNW,292,0.0,0.0,86,0.00,,,0.00,LWC V2.10 B1500,2014-12-26 17:36:00,
2014-12-26 09:41:00,37.2,33.4,30.22,WNW,292,0.0,0.0,86,0.00,,,0.00,LWC V2.10 B1500,2014-12-26 17:41:00,
2014-12-26 09:46:00,37.4,33.5,30.22,WNW,292,0.0,0.0,86,0.00,,,0.00,LWC V2.10 B1500,2014-12-26 17:46:00,
2014-12-26 09:51:00,37.6,33.7,30.22,WNW,292,0.0,0.0,86,0.00,,,0.00,LWC V2.10 B1500,2014-12-26 17:51:00,
2014-12-26 09:56:00,37.6,33.7,30.22,WNW,292,0.0,0.0,86,0.00,,,0.00,LWC V2.10 B1500,2014-12-26 17:56:00,
2014-12-26 10:01:00,37.6,33.7,30.22,WNW,292,0.0,0.0,86,0.00,,,0.00,LWC V2.10 B1500,2014-12-26 18:01:00,
2014-12-26 10:06:00,37.8,33.9,30.22,WNW,292,0.0,0.0,86,0.00,,,0.00,LWC V2.10 B1500,2014-12-26 18:06:00,
2014-12-26 10:11:00,37.8,33.9,30.22,WNW,292,0.0,0.0,86,0.00,,,0.00,LWC V2.10 B1500,2014-12-26 18:11:00,
2014-12-26 10:16:00,37.9,34.1,30.22,SW,225,0.0,0.0,86,0.00,,,0.00,LWC V2.10 B1500,2014-12-26 18:16:00,
2014-12-26 10:21:00,38.1,34.3,30.22,SW,225,0.0,0.0,86,0.00,,,0.00,LWC V2.10 B1500,2014-12-26 18:21:00,
2014-12-26 10:26:00,38.1,34.3,30.22,SW,225,0.0,0.0,86,0.00,,,0.00,LWC V2.10 B1500,2014-12-26 18:26:00,
2014-12-26 10:31:00,38.3,34.4,30.22,SW,225,0.0,0.0,86,0.00,,,0.00,LWC V2.10 B1500,2014-12-26 18:31:00,
2014-12-26 10:36:00,38.5,34.6,30.22,SW,225,0.0,0.0,86,0.00,,,0.00,LWC V2.10 B1500,2014-12-26 18:36:00,
2014-12-26 10:41:00,38.5,34.6,30.22,SW,225,0.0,0.0,86,0.00,,,0.00,LWC V2.10 B1500,2014-12-26 18:41:00,
2014-12-26 10:46:00,38.5,34.6,30.22,SW,225,0.0,0.0,86,0.00,,,0.00,LWC V2.10 B1500,2014-12-26 18:46:00,
2014-12-26 10:52:00,38.8,35.0,30.22,SW,225,0.0,0.0,86,0.00,,,0.00,LWC V2.10 B1500,2014-12-26 18:52:00,
2014-12-26 10:57:00,39.0,35.2,30.22,SW,225,0.0,0.0,86,0.00,,,0.00,LWC V2.10 B1500,2014-12-26 18:57:00,
2014-12-26 11:02:00,39.4,35.2,30.22,SW,225,0.0,0.0,85,0.00,,,0.00,LWC V2.10 B1500,2014-12-26 19:02:00,
2014-12-26 11:07:00,39.6,35.4,30.22,SW,225,0.0,0.0,85,0.00,,,0.00,LWC V2.10 B1500,2014-12-26 19:07:00,
2014-12-26 11:12:00,39.7,35.6,30.22,SW,225,0.0,0.0,85,0.00,,,0.00,LWC V2.10 B1500,2014-12-26 19:12:00,
2014-12-26 11:17:00,39.9,35.7,30.22,SW,225,0.0,0.0,85,0.00,,,0.00,LWC V2.10 B1500,2014-12-26 19:17:00,
2014-12-26 11:22:00,39.9,35.7,30.22,SW,225,0.0,0.0,85,0.00,,,0.00,LWC V2.10 B1500,2014-12-26 19:22:00,
2014-12-26 11:27:00,40.1,35.9,30.22,SW,225,0.0,0.0,85,0.00,,,0.00,LWC V2.10 B1500,2014-12-26 19:27:00,
2014-12-26 11:32:00,40.3,36.1,30.21,SW,225,0.0,0.0,85,0.00,,,0.00,LWC V2.10 B1500,2014-12-26 19:32:00,
2014-12-26 11:37:00,40.5,36.6,30.21,SW,225,0.0,0.0,86,0.00,,,0.00,LWC V2.10 B1500,2014-12-26 19:37:00,
2014-12-26 11:42:00,40.5,36.6,30.21,SW,225,0.0,0.0,86,0.00,,,0.00,LWC V2.10 B1500,2014-12-26 19:42:00,
2014-12-26 11:47:00,40.6,36.7,30.21,SW,225,0.0,0.0,86,0.00,,,0.00,LWC V2.10 B1500,2014-12-26 19:47:00,
2014-12-26 11:53:00,40.6,36.7,30.20,SW,225,0.0,0.0,86,0.00,,,0.00,LWC V2.10 B1500,2014-12-26 19:53:00,
2014-12-26 11:58:00,40.6,36.7,30.20,SW,225,0.0,0.0,86,0.00,,,0.00,LWC V2.10 B1500,2014-12-26 19:58:00,
2014-12-26 12:03:00,40.8,36.9,30.20,SW,225,0.0,0.0,86,0.00,,,0.00,LWC V2.10 B1500,2014-12-26 20:03:00,
2014-12-26 12:08:00,40.8,36.9,30.20,SW,225,0.0,0.0,86,0.00,,,0.00,LWC V2.10 B1500,2014-12-26 20:08:00,
2014-12-26 12:13:00,41.0,37.1,30.19,SW,225,0.0,0.0,86,0.00,,,0.00,LWC V2.10 B1500,2014-12-26 20:13:00,
2014-12-26 12:19:00,41.2,37.4,30.19,SW,225,0.0,0.0,86,0.00,,,0.00,LWC V2.10 B1500,2014-12-26 20:19:00,
2014-12-26 12:24:00,41.5,37.6,30.19,SW,225,0.0,0.0,86,0.00,,,0.00,LWC V2.10 B1500,2014-12-26 20:24:00,
2014-12-26 12:29:00,41.5,37.3,30.19,SW,225,0.0,0.0,85,0.00,,,0.00,LWC V2.10 B1500,2014-12-26 20:29:00,
2014-12-26 12:34:00,41.9,37.7,30.19,SW,225,0.0,0.0,85,0.00,,,0.00,LWC V2.10 B1500,2014-12-26 20:34:00,
2014-12-26 12:39:00,42.1,37.8,30.19,SE,135,0.0,0.0,85,0.00,,,0.00,LWC V2.10 B1500,2014-12-26 20:39:00,
2014-12-26 12:44:00,42.3,38.2,30.19,SE,135,0.0,0.0,85,0.00,,,0.00,LWC V2.10 B1500,2014-12-26 20:44:00,
2014-12-26 12:49:00,42.4,38.2,30.19,SE,135,0.0,0.0,85,0.00,,,0.00,LWC V2.10 B1500,2014-12-26 20:49:00,
2014-12-26 12:54:00,42.4,38.2,30.19,ESE,112,0.0,0.0,85,0.00,,,0.00,LWC V2.10 B1500,2014-12-26 20:54:00,
2014-12-26 12:59:00,42.4,38.2,30.19,NNE,22,0.0,0.0,85,0.00,,,0.00,LWC V2.10 B1500,2014-12-26 20:59:00,
2014-12-26 13:04:00,42.6,38.4,30.18,NNE,22,0.0,0.0,85,0.00,,,0.00,LWC V2.10 B1500,2014-12-26 21:04:00,
2014-12-26 13:09:00,42.6,38.4,30.18,ENE,67,0.0,0.0,85,0.00,,,0.00,LWC V2.10 B1500,2014-12-26 21:09:00,
2014-12-26 13:14:00,43.0,38.8,30.18,ESE,112,0.0,0.0,85,0.00,,,0.00,LWC V2.10 B1500,2014-12-26 21:14:00,